Time,TemperatureF,DewpointF,PressureIn,WindDirection,WindDirectionDegrees,WindSpeedMPH,WindSpeedGustMPH,Humidity,HourlyPrecipIn,Conditions,Clouds,dailyrainin,SoftwareType,DateUTC
2017-11-18 00:04:00,39.0,35.8,30.29,SSW,208,0.0,0.0,88,0.00,,,0.01,meteohub,2017-11-18 08:04:00,
2017-11-18 00:09:00,39.0,35.8,30.29,SSW,208,0.0,0.0,88,0.00,,,0.00,meteohub,2017-11-18 08:09:00,
2017-11-18 00:14:00,38.8,36.0,30.29,SSW,208,0.0,0.0,89,0.00,,,0.00,meteohub,2017-11-18 08:14:00,
2017-11-18 00:19:00,38.8,36.0,30.29,SSW,208,0.0,0.0,89,0.00,,,0.00,meteohub,2017-11-18 08:19:00,
2017-11-18 00:24:00,38.8,36.0,30.29,SSW,208,0.0,0.0,89,0.00,,,0.00,meteohub,2017-11-18 08:24:00,
2017-11-18 00:29:00,38.8,36.0,30.29,SSW,208,0.0,0.0,89,0.00,,,0.00,meteohub,2017-11-18 08:29:00,
2017-11-18 00:34:00,38.8,36.0,30.29,SSW,208,0.0,0.0,89,0.00,,,0.00,meteohub,2017-11-18 08:34:00,
2017-11-18 00:39:00,38.8,36.1,30.28,SSW,209,0.0,0.0,90,0.00,,,0.00,meteohub,2017-11-18 08:39:00,
2017-11-18 00:44:00,38.7,36.0,30.28,SSW,208,0.0,0.0,90,0.00,,,0.00,meteohub,2017-11-18 08:44:00,
2017-11-18 00:49:00,38.5,35.8,30.28,SSW,208,0.0,0.0,90,0.00,,,0.00,meteohub,2017-11-18 08:49:00,
2017-11-18 00:54:00,38.5,35.8,30.28,SSW,208,0.0,0.0,90,0.00,,,0.00,meteohub,2017-11-18 08:54:00,
2017-11-18 00:59:00,38.3,35.6,30.28,SSW,208,0.0,0.0,90,0.00,,,0.00,meteohub,2017-11-18 08:59:00,
2017-11-18 01:04:00,38.1,35.8,30.28,SSW,208,0.0,0.0,91,0.00,,,0.00,meteohub,2017-11-18 09:04:00,
2017-11-18 01:09:00,38.1,35.8,30.28,SSW,208,0.0,0.0,91,0.00,,,0.00,meteohub,2017-11-18 09:09:00,
2017-11-18 01:14:00,38.3,36.1,30.28,SSW,208,0.0,0.0,92,0.00,,,0.00,meteohub,2017-11-18 09:14:00,
2017-11-18 01:19:00,38.5,36.3,30.28,ESE,117,0.0,0.0,92,0.00,,,0.00,meteohub,2017-11-18 09:19:00,
2017-11-18 01:25:00,38.5,36.1,30.28,SSE,165,0.0,0.0,91,0.00,,,0.00,meteohub,2017-11-18 09:25:00,
2017-11-18 01:29:00,38.5,36.1,30.27,SSE,165,0.0,0.0,91,0.00,,,0.00,meteohub,2017-11-18 09:29:00,
2017-11-18 01:34:00,38.1,35.8,30.28,SSE,165,0.0,0.0,91,0.00,,,0.00,meteohub,2017-11-18 09:34:00,
2017-11-18 01:39:00,37.9,35.6,30.28,WSW,255,0.0,0.0,91,0.00,,,0.00,meteohub,2017-11-18 09:39:00,
2017-11-18 01:44:00,37.6,34.9,30.28,WSW,255,0.0,1.0,90,0.00,,,0.00,meteohub,2017-11-18 09:44:00,
2017-11-18 01:50:00,37.2,34.5,30.27,WSW,255,0.0,1.0,90,0.00,,,0.00,meteohub,2017-11-18 09:50:00,
2017-11-18 01:55:00,37.0,34.3,30.27,WSW,255,0.0,1.0,90,0.00,,,0.00,meteohub,2017-11-18 09:55:00,
2017-11-18 02:00:00,36.7,34.0,30.27,WSW,255,0.0,0.0,90,0.00,,,0.00,meteohub,2017-11-18 10:00:00,
2017-11-18 02:05:00,36.5,33.8,30.27,WSW,255,0.0,0.0,90,0.00,,,0.00,meteohub,2017-11-18 10:05:00,
2017-11-18 02:10:00,36.5,34.2,30.27,WSW,255,0.0,0.0,91,0.00,,,0.00,meteohub,2017-11-18 10:10:00,
2017-11-18 02:12:00,36.5,34.2,30.27,WSW,255,0.0,0.0,91,0.00,,,0.00,meteohub,2017-11-18 10:12:00,
2017-11-18 02:17:00,36.3,33.6,30.27,WSW,255,0.0,0.0,90,0.00,,,0.00,meteohub,2017-11-18 10:17:00,
2017-11-18 02:22:00,36.1,33.8,30.27,WSW,255,0.0,0.0,91,0.00,,,0.00,meteohub,2017-11-18 10:22:00,
2017-11-18 02:27:00,36.3,34.0,30.28,WSW,255,0.0,0.0,91,0.00,,,0.00,meteohub,2017-11-18 10:27:00,
2017-11-18 02:32:00,36.7,34.5,30.28,WSW,243,0.0,0.0,92,0.00,,,0.00,meteohub,2017-11-18 10:32:00,
2017-11-18 02:37:00,36.7,34.3,30.28,WSW,244,0.0,1.0,91,0.00,,,0.00,meteohub,2017-11-18 10:37:00,
2017-11-18 02:42:00,36.9,34.5,30.28,NNE,18,0.0,1.0,91,0.00,,,0.00,meteohub,2017-11-18 10:42:00,
2017-11-18 02:47:00,37.2,34.9,30.29,NNE,18,0.0,1.0,91,0.00,,,0.00,meteohub,2017-11-18 10:47:00,
2017-11-18 02:52:00,37.2,34.9,30.28,NNE,18,0.0,1.0,91,0.00,,,0.00,meteohub,2017-11-18 10:52:00,
2017-11-18 02:57:00,37.8,35.4,30.28,NNE,18,0.0,1.0,91,0.00,,,0.00,meteohub,2017-11-18 10:57:00,
2017-11-18 03:03:00,37.4,34.5,30.28,NNE,19,0.0,1.0,89,0.00,,,0.00,meteohub,2017-11-18 11:03:00,
2017-11-18 03:08:00,37.0,34.2,30.28,NNE,18,0.0,1.0,89,0.00,,,0.00,meteohub,2017-11-18 11:08:00,
2017-11-18 03:13:00,37.0,34.2,30.28,SSW,212,0.0,1.0,89,0.00,,,0.00,meteohub,2017-11-18 11:13:00,
2017-11-18 03:18:00,36.7,33.8,30.28,SE,125,0.0,1.0,89,0.00,,,0.00,meteohub,2017-11-18 11:18:00,
2017-11-18 03:23:00,36.1,33.3,30.28,SE,135,0.0,1.0,89,0.00,,,0.00,meteohub,2017-11-18 11:23:00,
2017-11-18 03:28:00,36.1,33.4,30.27,SE,135,0.0,1.0,90,0.00,,,0.00,meteohub,2017-11-18 11:28:00,
2017-11-18 03:33:00,36.1,33.8,30.27,SE,135,0.0,1.0,91,0.00,,,0.00,meteohub,2017-11-18 11:33:00,
2017-11-18 03:38:00,36.7,34.3,30.27,ESE,118,0.0,0.0,91,0.00,,,0.00,meteohub,2017-11-18 11:38:00,
2017-11-18 03:43:00,36.7,34.3,30.27,ESE,121,0.0,0.0,91,0.00,,,0.00,meteohub,2017-11-18 11:43:00,
2017-11-18 03:48:00,36.5,34.2,30.27,ESE,122,0.0,0.0,91,0.00,,,0.00,meteohub,2017-11-18 11:48:00,
2017-11-18 03:53:00,36.7,34.5,30.27,ESE,122,0.0,0.0,92,0.00,,,0.00,meteohub,2017-11-18 11:53:00,
2017-11-18 03:58:00,36.7,34.3,30.27,ESE,122,0.0,0.0,91,0.00,,,0.00,meteohub,2017-11-18 11:58:00,
2017-11-18 04:03:00,36.7,34.3,30.26,ESE,121,0.0,0.0,91,0.00,,,0.00,meteohub,2017-11-18 12:03:00,
2017-11-18 04:08:00,36.9,34.7,30.26,SE,136,1.0,1.0,92,0.00,,,0.00,meteohub,2017-11-18 12:08:00,
2017-11-18 04:13:00,36.9,34.7,30.26,SE,131,0.0,2.0,92,0.00,,,0.00,meteohub,2017-11-18 12:13:00,
2017-11-18 04:18:00,36.9,34.7,30.26,SE,131,0.0,2.0,92,0.00,,,0.00,meteohub,2017-11-18 12:18:00,
2017-11-18 04:23:00,36.5,34.3,30.26,SE,131,0.0,2.0,92,0.00,,,0.00,meteohub,2017-11-18 12:23:00,
2017-11-18 04:28:00,36.3,34.0,30.26,SE,131,0.0,1.0,91,0.00,,,0.00,meteohub,2017-11-18 12:28:00,
2017-11-18 04:33:00,36.1,33.8,30.26,SE,131,0.0,0.0,91,0.00,,,0.00,meteohub,2017-11-18 12:33:00,
2017-11-18 04:38:00,36.1,34.0,30.26,SE,131,0.0,0.0,92,0.00,,,0.00,meteohub,2017-11-18 12:38:00,
2017-11-18 04:43:00,36.1,34.0,30.26,ESE,122,0.0,1.0,92,0.00,,,0.00,meteohub,2017-11-18 12:43:00,
2017-11-18 04:48:00,36.0,33.6,30.27,ESE,123,0.0,2.0,91,0.00,,,0.00,meteohub,2017-11-18 12:48:00,
2017-11-18 04:53:00,36.1,34.0,30.26,South,173,0.0,2.0,92,0.00,,,0.00,meteohub,2017-11-18 12:53:00,
2017-11-18 04:58:00,36.5,34.3,30.26,SE,138,0.0,2.0,92,0.00,,,0.00,meteohub,2017-11-18 12:58:00,
2017-11-18 05:03:00,36.7,34.3,30.26,SE,139,0.0,1.0,91,0.00,,,0.00,meteohub,2017-11-18 13:03:00,
2017-11-18 05:08:00,36.7,34.3,30.26,SE,139,0.0,0.0,91,0.00,,,0.00,meteohub,2017-11-18 13:08:00,
2017-11-18 05:13:00,36.7,34.0,30.26,SE,138,0.0,1.0,90,0.00,,,0.00,meteohub,2017-11-18 13:13:00,
2017-11-18 05:18:00,37.0,34.3,30.26,SE,132,0.0,1.0,90,0.00,,,0.00,meteohub,2017-11-18 13:18:00,
2017-11-18 05:23:00,37.2,34.3,30.27,SE,132,0.0,1.0,89,0.00,,,0.00,meteohub,2017-11-18 13:23:00,
2017-11-18 05:28:00,37.2,34.0,30.27,SE,131,0.0,2.0,88,0.00,,,0.00,meteohub,2017-11-18 13:28:00,
2017-11-18 05:33:00,37.6,34.3,30.26,SE,131,0.0,2.0,88,0.00,,,0.00,meteohub,2017-11-18 13:33:00,
2017-11-18 05:38:00,37.6,34.3,30.26,SE,131,0.0,2.0,88,0.00,,,0.00,meteohub,2017-11-18 13:38:00,
2017-11-18 05:43:00,37.6,34.3,30.26,ESE,121,1.0,1.0,88,0.00,,,0.00,meteohub,2017-11-18 13:43:00,
2017-11-18 05:48:00,37.9,34.7,30.26,ESE,119,0.0,1.0,88,0.00,,,0.00,meteohub,2017-11-18 13:48:00,
2017-11-18 05:53:00,37.9,34.3,30.26,ESE,122,0.0,1.0,87,0.00,,,0.00,meteohub,2017-11-18 13:53:00,
2017-11-18 05:58:00,37.9,34.3,30.26,SE,127,0.0,1.0,87,0.00,,,0.00,meteohub,2017-11-18 13:58:00,
2017-11-18 06:03:00,37.8,34.2,30.26,SE,127,0.0,1.0,87,0.00,,,0.00,meteohub,2017-11-18 14:03:00,
2017-11-18 06:04:00,37.8,34.2,30.26,SE,127,0.0,1.0,87,0.00,,,0.00,meteohub,2017-11-18 14:04:00,
2017-11-18 06:09:00,37.4,33.8,30.26,SE,127,0.0,1.0,87,0.00,,,0.00,meteohub,2017-11-18 14:09:00,
2017-11-18 06:14:00,36.9,33.1,30.26,SE,127,0.0,1.0,86,0.00,,,0.00,meteohub,2017-11-18 14:14:00,
2017-11-18 06:19:00,36.3,32.9,30.26,SE,127,0.0,1.0,87,0.00,,,0.00,meteohub,2017-11-18 14:19:00,
2017-11-18 06:24:00,36.1,32.9,30.26,SE,127,0.0,1.0,88,0.00,,,0.00,meteohub,2017-11-18 14:24:00,
2017-11-18 06:29:00,36.0,32.7,30.26,SE,127,0.0,0.0,88,0.00,,,0.00,meteohub,2017-11-18 14:29:00,
2017-11-18 06:34:00,36.0,33.1,30.26,SE,127,0.0,0.0,89,0.00,,,0.00,meteohub,2017-11-18 14:34:00,
2017-11-18 06:39:00,36.1,33.3,30.26,SE,127,0.0,0.0,89,0.00,,,0.00,meteohub,2017-11-18 14:39:00,